[Date Prev][Date Next][Thread Prev][Thread Next] - [Date Index][Thread Index][Author Index]

2 Line ISS Keps 1-18



ISS
1 25544U 98067A   03018.19128670  .00026841  00000-0  33956-3 0  5970
2 25544  51.6359  53.7178 0005680  46.3349  63.7137 15.59295584237608


----
Via the sarex mailing list at AMSAT.ORG courtesy of AMSAT-NA.
To unsubscribe, send "unsubscribe sarex" to Majordomo@amsat.org



AMSAT Top AMSAT Home